This demonstration page uses our WeatherBlox Daily Observations layout. Learn more.

39.01783, -85.05884

Hourly Observations for June 17, 2019

Temp ( °F °C ) Dew Point ( °F °C ) Humidity (%) Winds ( mph kmh ) Pressure ( in mb ) Visibility ( mi km ) Precip ( " mm )
12:52 am 00:52 Cloudy with Light Rain 67 19.4 65 18.3 93 93 W 8 13 29.88 1012 10 16.09344 0.09 2.286
1:03 am 01:03 Cloudy with Light Rain 67 19.4 65 18.3 93 93 W 7 11 29.91 1013 10 16.09344 0.001 0.001
1:52 am 01:52 Cloudy with Light Rain 67 19.4 65 18.3 93 93 SSW 12 19 29.91 1013 10 16.09344 0.001 0.001
2:15 am 02:15 Cloudy with Light Rain 67 19.4 65 18.3 93 93 SSW 9 15 29.91 1013 10 16.09344 0.001 0.001
2:52 am 02:52 Cloudy 67 19.4 65 18.3 93 93 S 10 17 29.88 1012 10 16.09344 0.001 0.001
3:52 am 03:52 Cloudy 67 19.4 64 17.8 91 91 S 7 11 29.85 1011 10 16.09344 0.001 0.001
4:52 am 04:52 Cloudy 67 19.4 64 17.8 91 91 S 8 13 29.88 1012 10 16.09344 0 0
5:52 am 05:52 Cloudy 67 19.4 64 17.8 91 91 SSW 7 11 29.91 1013 10 16.09344 0 0
6:52 am 06:52 Mostly Cloudy 67 19.4 65 18.3 93 93 S 6 9 29.91 1013 8 12.874752 0 0
7:52 am 07:52 Cloudy 68 20 65 18.3 90 90 SSW 9 15 29.94 1014 9 14.484096 0 0
8:52 am 08:52 Cloudy 69 20.6 66 18.9 90 90 S 10 17 29.94 1014 10 16.09344 0 0
9:11 am 09:11 Cloudy 69 20.6 66 18.9 90 90 S 9 15 29.97 1015 10 16.09344 0 0
9:52 am 09:52 Cloudy 71 21.7 66 18.9 84 84 SSW 8 13 29.94 1014 10 16.09344 0 0
10:52 am 10:52 Cloudy 74 23.3 67 19.4 79 79 S 14 22 29.97 1015 10 16.09344 0 0
11:08 am 11:08 Cloudy 73 22.8 68 20 84 84 S 10 17 29.97 1015 10 16.09344 0 0
11:28 am 11:28 Cloudy 74 23.3 68 20 82 82 S 9 15 29.97 1015 10 16.09344 0 0
11:52 am 11:52 Cloudy 74 23.3 68 20 82 82 SSW 5 7 29.97 1015 10 16.09344 0 0
12:07 pm 12:07 Mostly Cloudy 76 24.4 69 20.6 79 79 Calm 29.97 1015 10 16.09344 0 0
12:52 pm 12:52 Mostly Cloudy 79 26.1 69 20.6 72 72 undefined N/A 29.94 1014 9 14.484096 0 0
1:52 pm 13:52 Cloudy 79 26.1 68 20 69 69 SW 7 11 29.94 1014 9 14.484096 0 0
2:31 pm 14:31 Cloudy with Light Rain 79 26.1 70 21.1 74 74 SSW 8 13 29.94 1014 8 12.874752 0.001 0.001
2:52 pm 14:52 Cloudy 79 26.1 71 21.7 77 77 SSW 10 17 29.94 1014 8 12.874752 0.001 0.001
3:24 pm 15:24 Cloudy 79 26.1 70 21.1 74 74 S 10 17 29.94 1014 9 14.484096 0 0
3:52 pm 15:52 Cloudy 79 26.1 70 21.1 74 74 S 12 19 29.91 1013 9 14.484096 0 0
4:52 pm 16:52 Cloudy 79 26.1 69 20.6 72 72 SSW 7 11 29.91 1013 9 14.484096 0 0
5:52 pm 17:52 Cloudy 83 28.3 68 20 61 61 SSW 9 15 29.88 1012 10 16.09344 0 0
6:52 pm 18:52 Cloudy 79 26.1 69 20.6 72 72 S 6 9 29.88 1012 10 16.09344 0 0
7:21 pm 19:21 Cloudy with Light Thunderstorms 79 26.1 69 20.6 72 72 Calm 29.88 1012 10 16.09344 0.001 0.001
7:34 pm 19:34 Cloudy with Light Thunderstorms 74 23.3 70 21.1 88 88 WSW 3 6 29.91 1013 6 9.656064 0.01 0.254
7:41 pm 19:41 Cloudy with Heavy Thunderstorms 74 23.3 70 21.1 88 88 WSW 6 9 29.91 1013 2.5 4.02336 0.01 0.254
7:47 pm 19:47 Cloudy with Heavy Thunderstorms 73 23 70 21 89 89 WNW 38 61 29.94 1014 0.75 1.207008 0.06 1.524
7:57 pm 19:57 Cloudy with Heavy Thunderstorms 72 22.2 70 21.1 94 94 NW 20 31 29.94 1014 3 4.828032 0.37 9.398
8:02 pm 20:02 Cloudy with Light Thunderstorms 72 22.2 70 21.1 94 94 NW 15 24 29.94 1014 6 9.656064 0.37 9.398
8:14 pm 20:14 Cloudy with Light Thunderstorms 72 22.2 66 18.9 82 82 NNW 12 19 29.94 1014 10 16.09344 0.38 9.652
8:33 pm 20:33 Cloudy 73 22.8 66 18.9 79 79 NNW 6 9 29.94 1014 10 16.09344 0.38 9.652
8:52 pm 20:52 Cloudy 75 23.9 67 19.4 76 76 Calm 29.91 1013 10 16.09344 0.38 9.652
9:52 pm 21:52 Cloudy 66 18.9 64 17.8 93 93 SSE 3 6 29.91 1013 10 16.09344 0.001 0.001
10:52 pm 22:52 Cloudy 66 18.9 64 17.8 93 93 S 3 6 29.91 1013 10 16.09344 0 0
11:52 pm 23:52 Cloudy 68 20 65 18.3 90 90 SSW 3 6 29.94 1014 10 16.09344 0 0

Powered by AerisWeather